Rogers, AR

7:12 PM CST on February 10, 2016 (GMT -0600)
Rogers Municipal-Carter

Weather History for KROG - May, 2014

Change the Weather History Date:

Saturday, May 17, 2014

  Actual Average Record
Temperature  
Mean Temperature 52 °F -  
Max Temperature 59 °F 72 °F 87 °F (2001)
Min Temperature 46 °F 54 °F 39 °F (2011)
Degree Days  
Heating Degree Days 12    
Growing Degree Days 2 (Base 50)    
Moisture  
Dew Point 46 °F    
Average Humidity 79    
Maximum Humidity 93    
Minimum Humidity 67    
Precipitation  
Precipitation 0.03 in - - ()
Sea Level Pressure  
Sea Level Pressure 30.13 in    
Wind  
Wind Speed 10 mph (East)    
Max Wind Speed 15 mph    
Max Gust Speed 21 mph    
Visibility 10 miles    
Events Rain    
Averages and records for this station are not official NWS values.
T = Trace of Precipitation, MM = Missing Value Source: NWS Daily Summary

Daily Weather History Graph

Daily Weather History Graph

Search for Another Location

Airport or City:

Trip Planner

Search our weather history database for the weather conditions in past years. The results will help you decide how hot, cold, wet, or windy it might be!

Date:

Astronomy

May. 17, 2014 Rise Set
Actual Time 6:08 AM CDT 8:17 PM CDT
Civil Twilight 5:39 AM CDT 8:46 PM CDT
Nautical Twilight 5:04 AM CDT 9:22 PM CDT
Astronomical Twilight 4:25 AM CDT 10:00 PM CDT
Moon 11:19 PM CDT (5/17) 8:51 AM CDT (5/17)
Length of Visible Light 15h 07m
Length of Day
14h 09m
Waning Gibbous, 89% of the Moon is Illuminated
May 17
Waning Gibbous
May 21
Last Quarter
May 28
New
Jun 5
First Quarter
Jun 12
Full

Hourly Weather History & Observations

Time (CDT) Temp. Windchill Dew Point Humidity Pressure Visibility Wind Dir Wind Speed Gust Speed Precip Events Conditions
12:57 AM 46.0 °F 40.6 °F 43.0 °F 89% 30.14 in 10.0 mi ENE 11.5 mph - 0.03 in Rain Light Rain
1:57 AM 46.0 °F 41.4 °F 43.0 °F 89% 30.13 in 10.0 mi ESE 9.2 mph - 0.00 in   Overcast
2:57 AM 46.9 °F - 44.1 °F 90% 30.11 in 10.0 mi ESE 8.1 mph - N/A   Overcast
3:57 AM 46.9 °F - 43.0 °F 86% 30.12 in 10.0 mi East 6.9 mph - N/A   Overcast
4:41 AM 46.4 °F 42.9 °F 42.8 °F 87% 30.12 in 10.0 mi East 6.9 mph - N/A   Overcast
4:57 AM 46.0 °F 41.0 °F 43.0 °F 89% 30.09 in 10.0 mi ENE 10.4 mph - N/A   Overcast
5:23 AM 46.4 °F 40.4 °F 42.8 °F 87% 30.07 in 10.0 mi East 13.8 mph - N/A   Scattered Clouds
5:57 AM 46.0 °F 41.0 °F 43.0 °F 89% 30.09 in 10.0 mi ENE 10.4 mph - N/A   Scattered Clouds
6:05 AM 46.4 °F 42.4 °F 42.8 °F 87% 30.09 in 10.0 mi ENE 8.1 mph - N/A   Mostly Cloudy
7:07 AM 46.4 °F 42.9 °F 44.6 °F 93% 30.11 in 10.0 mi ENE 6.9 mph - N/A   Scattered Clouds
7:29 AM 46.4 °F 41.5 °F 44.6 °F 93% 30.12 in 10.0 mi ENE 10.4 mph - N/A   Mostly Cloudy
7:57 AM 48.0 °F - 44.1 °F 86% 30.12 in 10.0 mi East 9.2 mph - N/A   Mostly Cloudy
8:07 AM 48.2 °F - 44.6 °F 87% 30.12 in 10.0 mi East 9.2 mph - N/A   Scattered Clouds
8:16 AM 48.2 °F - 44.6 °F 87% 30.13 in 10.0 mi ENE 9.2 mph - N/A   Partly Cloudy
8:49 AM 51.8 °F - 44.6 °F 76% 30.14 in 10.0 mi East 12.7 mph 20.7 mph N/A   Mostly Cloudy
8:57 AM 51.1 °F - 46.0 °F 83% 30.15 in 10.0 mi East 11.5 mph - N/A   Mostly Cloudy
9:57 AM 53.1 °F - 46.0 °F 77% 30.15 in 10.0 mi East 11.5 mph - N/A   Overcast
10:36 AM 53.6 °F - 46.4 °F 77% 30.15 in 10.0 mi ENE 12.7 mph - N/A   Overcast
10:57 AM 54.0 °F - 46.0 °F 75% 30.15 in 10.0 mi NE 15.0 mph - N/A   Overcast
11:13 AM 55.4 °F - 46.4 °F 72% 30.16 in 10.0 mi ENE 15.0 mph - N/A   Overcast
11:57 AM 55.0 °F - 46.9 °F 74% 30.16 in 10.0 mi ENE 10.4 mph - N/A   Overcast
12:57 PM 54.0 °F - 46.9 °F 77% 30.17 in 10.0 mi NE 12.7 mph - N/A   Overcast
1:57 PM 57.0 °F - 46.9 °F 69% 30.16 in 10.0 mi East 12.7 mph - N/A   Overcast
2:52 PM 57.2 °F - 46.4 °F 67% 30.15 in 10.0 mi ESE 10.4 mph - N/A   Overcast
2:57 PM 57.2 °F - 46.4 °F 67% 30.15 in 10.0 mi East 10.4 mph - N/A   Overcast
2:59 PM 57.0 °F - 48.0 °F 72% 30.15 in 10.0 mi East 11.5 mph - N/A   Overcast
3:57 PM 57.0 °F - 48.0 °F 72% 30.14 in 10.0 mi East 8.1 mph - N/A   Overcast
4:13 PM 57.2 °F - 48.2 °F 72% 30.14 in 10.0 mi East 9.2 mph - N/A   Overcast
4:57 PM 57.9 °F - 48.0 °F 70% 30.13 in 10.0 mi SE 5.8 mph - N/A   Scattered Clouds
5:53 PM 57.2 °F - 48.2 °F 72% 30.12 in 10.0 mi ESE 10.4 mph - N/A   Mostly Cloudy
5:57 PM 59.0 °F - 48.0 °F 67% 30.12 in 10.0 mi East 11.5 mph - N/A   Mostly Cloudy
6:02 PM 57.2 °F - 48.2 °F 72% 30.12 in 10.0 mi East 10.4 mph - N/A   Scattered Clouds
6:57 PM 57.9 °F - 48.0 °F 70% 30.13 in 10.0 mi East 5.8 mph - N/A   Scattered Clouds
7:57 PM 57.0 °F - 48.0 °F 72% 30.14 in 10.0 mi East 4.6 mph - N/A   Clear
8:57 PM 55.0 °F - 48.9 °F 80% 30.15 in 10.0 mi ESE 3.5 mph - N/A   Partly Cloudy
9:57 PM 54.0 °F - 48.9 °F 83% 30.17 in 10.0 mi SE 9.2 mph - N/A   Scattered Clouds
11:57 PM 53.1 °F - 48.0 °F 83% 30.16 in 10.0 mi ESE 4.6 mph - N/A   Overcast